VIASAT-3

Last updated on Mon Oct 07 2024 00:02:42 GMT+0000 (Coordinated Universal Time)

1 56370U 23060A 24280.45281066 -.00000174 00000+0 00000+0 0 9991 2 56370 0.0191 234.4629 0000097 227.1212 348.1070 1.00271087 5236
UTC large
Height (km)
Speed (km/s)
/
Latitude / Longitude
Inclination (degrees)
Orbital Period (minutes)
Azimuth
Elevation
Range (km)
Doppler Factor

Next 0 passes for location: London (51.5072 / 0.1276)

Sorry there are no passes over London.